Change the Weather History Date:

Thursday, December 19, 2013

  Actual Average (PHNL) Record (PHNL)
Temperature  
Mean Temperature 72 °F 74 °F  
Max Temperature 80 °F 81 °F 88 °F (1995)
Min Temperature 64 °F 68 °F 58 °F (1972)
Degree Days  
Heating Degree Days 0 0  
Month to date heating degree days 0  
Since 1 July heating degree days 0  
Cooling Degree Days 7 9  
Month to date cooling degree days 195  
Year to date cooling degree days 4521  
Growing Degree Days 22 (Base 50)    
Moisture  
Dew Point 65 °F    
Average Humidity 82    
Maximum Humidity 97    
Minimum Humidity 58    
Precipitation  
Precipitation 0.04 in 0.13 in 5.41 in (2010)
Month to date precipitation 1.87  
Year to date precipitation 15.73  
Snow  
Snow 0.00 in - - ()
Month to date snowfall  
Since 1 July snowfall  
Snow Depth -    
Sea Level Pressure  
Sea Level Pressure 30.05 in    
Wind  
Wind Speed 4 mph (East)    
Max Wind Speed 9 mph    
Max Gust Speed 17 mph    
Visibility 10 miles    
Events Rain    
T = Trace of Precipitation, MM = Missing Value Source: NWS Daily Summary

Daily Weather History Graph

Daily Weather History Graph

Search for Another Location

Airport or City:

Trip Planner

Search our weather history database for the weather conditions in past years. The results will help you decide how hot, cold, wet, or windy it might be!

Date:

Astronomy

Dec. 19, 2013 Rise Set
Actual Time 7:04 AM HST 5:54 PM HST
Civil Twilight 6:40 AM HST 6:19 PM HST
Nautical Twilight 6:12 AM HST 6:46 PM HST
Astronomical Twilight 5:45 AM HST 7:14 PM HST
Moon 8:15 PM HST (12/19) 8:44 AM HST (12/19)
Length of Visible Light 11h 38m
Length of Day
10h 50m
Waning Gibbous, 94% of the Moon is Illuminated
Dec 19
Waning Gibbous
Dec 25
Last Quarter
Jan 1
New
Jan 7
First Quarter
Jan 15
Full

Hourly Weather History & Observations

Time (HST) Temp. Heat Index Dew Point Humidity Pressure Visibility Wind Dir Wind Speed Gust Speed Precip Events Conditions
12:53 AM 68.0 °F - 64.9 °F 90% 30.05 in 10.0 mi East 3.5 mph - N/A   Mostly Cloudy
1:53 AM 66.9 °F - 66.0 °F 97% 30.04 in 6.0 mi Variable 3.5 mph - 0.04 in Rain Heavy Rain
2:53 AM 66.0 °F - 64.9 °F 96% 30.03 in 10.0 mi Variable 3.5 mph - 0.00 in   Clear
3:53 AM 64.9 °F - 64.0 °F 97% 30.03 in 10.0 mi Calm Calm - N/A   Clear
4:53 AM 66.0 °F - 64.0 °F 93% 30.04 in 10.0 mi Variable 3.5 mph - N/A   Clear
5:09 AM 66.2 °F - 64.4 °F 94% 30.02 in 10.0 mi Variable 4.6 mph - N/A   Partly Cloudy
5:53 AM 66.0 °F - 63.0 °F 90% 30.04 in 10.0 mi Calm Calm - N/A   Clear
6:53 AM 64.9 °F - 63.0 °F 93% 30.06 in 10.0 mi ENE 4.6 mph - N/A   Clear
7:53 AM 68.0 °F - 64.0 °F 87% 30.08 in 10.0 mi ENE 3.5 mph - N/A   Clear
8:53 AM 73.0 °F - 66.0 °F 79% 30.09 in 10.0 mi Variable 3.5 mph - N/A   Clear
9:53 AM 73.9 °F - 66.0 °F 76% 30.09 in 10.0 mi Variable 4.6 mph - N/A   Partly Cloudy
10:53 AM 75.9 °F - 66.9 °F 74% 30.09 in 10.0 mi Variable 6.9 mph - N/A   Scattered Clouds
11:53 AM 78.1 °F - 66.0 °F 66% 30.06 in 10.0 mi SE 6.9 mph - N/A   Partly Cloudy
12:53 PM 79.0 °F - 66.0 °F 64% 30.04 in 10.0 mi ESE 9.2 mph - N/A   Clear
1:53 PM 79.0 °F - 68.0 °F 69% 30.01 in 10.0 mi Variable 6.9 mph 17.3 mph N/A   Clear
2:53 PM 80.1 °F 81.9 °F 64.9 °F 60% 30.01 in 10.0 mi SE 8.1 mph - N/A   Mostly Cloudy
3:53 PM 80.1 °F 81.7 °F 64.0 °F 58% 30.00 in 10.0 mi Variable 6.9 mph - N/A   Scattered Clouds
4:53 PM 77.0 °F - 64.9 °F 66% 30.02 in 10.0 mi NE 5.8 mph - N/A   Partly Cloudy
5:53 PM 72.0 °F - 63.0 °F 73% 30.04 in 10.0 mi Calm Calm - N/A   Clear
6:53 PM 70.0 °F - 66.0 °F 87% 30.05 in 10.0 mi Variable 5.8 mph - 0.00 in Rain Light Rain
7:22 PM 69.8 °F - 64.4 °F 83% 30.04 in 10.0 mi Variable 4.6 mph - 0.00 in   Partly Cloudy
7:53 PM 69.1 °F - 64.0 °F 84% 30.06 in 10.0 mi Variable 3.5 mph - 0.00 in   Clear
8:53 PM 70.0 °F - 64.0 °F 81% 30.07 in 10.0 mi NE 3.5 mph - N/A   Clear
9:53 PM 69.1 °F - 64.9 °F 87% 30.07 in 10.0 mi Calm Calm - N/A   Clear
10:33 PM 68.0 °F - 64.4 °F 88% 30.05 in 10.0 mi Calm Calm - N/A   Partly Cloudy
10:53 PM 69.1 °F - 64.9 °F 87% 30.07 in 10.0 mi Variable 3.5 mph - N/A   Partly Cloudy
11:53 PM 68.0 °F - 64.0 °F 87% 30.06 in 10.0 mi NE 3.5 mph - N/A   Partly Cloudy